Starlink 35782

operational
NORAD ID: 67182 Int'l Des: 2025-303 Owner: SPXS Country: US Constellation: starlink
LEOCIRCULAR

Starlink 35782について

説明を読み込み中...

リアルタイム位置

3D地球を読み込み中...

次回通過

高度履歴

Altitude vs Time

uPlot chart will show altitude changes over time

軌道要素

1 67182C 25303V 25352.76715278 .00695040 00000+0 10192-2 0 3528
2 67182 43.0050 61.7858 0007425 284.1071 262.8376 16.03336751 14
Epoch: Dec 18, 2025 • Age: 58 hours

現在のステータス

高度 268.3 km
速度 7.75 km/s
衛星直下点 -43.05°S, 83.2°E
打ち上げ日 Dec 17, 2025
運用期間 2 days
タイプ internet

技術仕様

分類 Payload
質量 575.00 kg
乾燥質量 530.00 kg
総質量 575.00 kg
長さ 0.30 m
直径 4.10 m
スパン 29.00 m
形状 Box + pan
製造者 SPXS
バスタイプ Starlink V2MO
フェーズステータス In Orbit
所有者/国 SPXS/US

大規模コンステレーション

Loading constellations...